SL-14 R/B

Satellite information

Favourite Embed

Satellite Type and Status

ROCKET BODYIN ORBIT

Key statistics

Satellite SL-14 R/B at a glance.

Uptime

14582

Days in orbit

Revolutions

≈ 14.9

Per day

Orbit

LEO

Low Earth Orbit

Inclination

82.5

Latest

Satellite identification and parameters

Extended collection of information and parameters for SL-14 R/B.

Object identification

Identified? True

Debris? False

Object name: SL-14 R/B

International designator: 1985-108B

Object number (NORAD): 16263

Object ID (CCSDS): 16263

Country: COMMONWEALTH OF INDEPENDENT STATES (CIS)

Current information (Y/N): Y

RCS size: LARGE

Orbital parameters

Period: 96.949 minutes

Inclination: 82.5001 deg

SMA: 6990.713 km

Apoapsis: 626.259 km

Periapsis: 598.897 km

RAAN: 128.9316 deg

Eccentricy: 0.00195702

Argument of periapsis: 13.4717 deg

Mean anomaly: 102.0675 deg

Mean motion: 14.85321749 rev/day

Mean motion (dot): 0.00000671 rev/day2

B* drag term: 0.000075035504 1/REarth

Two-line elements (TLE)

Creation date: Oct. 25, 2025, 3:11 a.m.

Reference frame: TEME

Reference center: EARTH

Epoch: Oct. 24, 2025, 10:49 p.m. UTC

TLE line 0: 0 SL-14 R/B

TLE line 1: 1 16263U 85108B 25297.95110432 .00000671 00000-0 75036-4 0 9999

TLE line 2: 2 16263 82.5001 128.9316 0019570 13.4717 102.0675 14.85321749135779

Live tracking on map

Real-time ground track for satellite SL-14 R/B.

In-orbit conjunctions

A list of the most updated potential collisions computed for object SL-14 R/B.

Target Orbit TCA Probability of collision Miss distance Type
FENGYUN 1C DEB SSO 2025-09-01 08:26:36 0.0001230558 451.0 (m) DEBRIS
RUBIN 8/PSLV SSO 2025-01-11 10:26:47 0.00123422 873.0 (m) PAYLOAD
COSMOS 2251 DEB LEO 2024-07-03 13:06:35 0.0002423913 73.0 (m) DEBRIS

Associated space launch

Tselina-D satellites provided detailed observation of radio sources detected by the smaller Tselina-O satellites as part of the Tselina ELINT system.

SL-14 R/B was lifted into orbit during the mission ‘Tsiklon-3 | Tselina-D 51’, on board a Tsiklon-3 space rocket.

The launch took place on Nov. 22, 1985, 10:20 p.m. from 32/2.

For more information about the launch, click the button.

Launch to space Tsiklon-3 | Tselina-D 51
Tsiklon-3 | Tselina-D 51

Agency: N/A

Status: Launch Successful

Launch date: Nov. 22, 1985, 10:20 p.m. UTC

Rocket: Tsiklon-3

Launch pad: 32/2

Location: Plesetsk Cosmodrome, Russian Federation

...

Latest news about this satellite

There are no fresh news available about this satellite. Check back as we update our databases every day.


Newsletter sign-up

Weekly statistics, charts and insights to help you stay on top of the space industry.